Temperature
16 16 16 16 16 16 16 16 16 16 17 16 16 15 15 15 15 15 15 15 15 15 15 15 15 16 16 16 16 16 16 16 16 16 17 17 17 17 17 17 17 17 17
17 16 16 16 16 16 16 16 16 16 16 16 15 15 15 15 15 15 15 15 15 15 15 15 15 15 16 16 16 16 16 17 16 16 17 18 18 17 17 17 16 17 17
17 17 16 16 16 16 16 16 16 16 15 15 15 15 15 15 14 14 14 14 15 15 15 15 15 15 15 16 16 15 15 16 16 16 17 18 20 20 18 17 16 16 16
17 17 17 16 16 16 16 15 15 15 15 15 14 14 14 14 14 14 13 14 14 14 15 15 15 15 15 15 15 15 15 15 16 16 16 16 17 18 19 17 17 16 16
18 17 17 16 16 16 15 15 14 14 14 14 14 13 14 14 14 13 13 13 13 13 14 14 14 14 14 14 15 15 15 15 15 16 16 16 15 16 17 19 18 17 16
18 17 17 16 16 15 15 14 14 13 13 13 13 13 13 13 13 13 13 13 13 13 13 13 13 14 14 14 14 14 14 15 15 15 16 16 16 16 17 18 17 18 17
18 17 17 16 15 15 14 14 13 13 12 12 12 12 12 12 12 12 13 12 13 13 12 12 12 12 13 13 13 14 14 14 14 15 15 16 16 17 17 17 18 17 17
18 17 17 16 15 15 14 13 13 12 12 12 12 11 11 12 12 12 12 12 12 12 12 11 11 12 12 12 12 13 13 13 14 14 14 15 15 16 16 16 17 17 17
17 17 16 15 15 14 13 13 12 12 11 11 11 11 11 11 11 11 11 11 11 11 11 11 11 11 11 11 11 12 12 13 13 13 14 14 15 15 15 16 16 17 18
17 17 16 15 14 13 13 12 12 11 11 10 10 11 10 10 10 10 10 10 10 10 10 10 10 10 10 10 11 11 11 11 12 13 13 13 14 14 15 15 15 16 17
16 16 15 14 13 13 12 12 11 11 10 10 9 9 9 9 9 9 9 9 9 10 10 10 10 10 10 10 10 10 10 11 11 11 12 12 13 14 14 14 15 15 15
15 15 14 13 13 12 11 11 10 10 10 9 8 8 8 8 8 9 9 8 8 9 9 10 10 10 10 10 10 10 10 10 10 10 11 12 12 13 13 14 14 14 15
15 14 13 12 12 11 10 10 9 9 9 8 8 8 7 7 7 7 8 8 8 8 8 9 9 10 10 10 10 10 10 10 10 10 10 10 11 12 12 13 13 14 14
14 13 12 11 11 10 9 9 9 8 8 8 7 7 7 7 7 7 7 7 7 7 7 8 9 9 9 10 10 10 9 9 9 9 9 10 10 11 11 12 12 13 13
13 12 12 11 10 10 9 9 8 8 7 7 7 7 7 6 6 6 6 6 6 7 7 7 8 9 9 9 10 9 9 9 9 9 9 9 10 10 10 11 11 12 12
13 12 11 10 10 9 9 8 8 7 7 7 7 6 6 6 6 6 6 6 6 6 6 7 7 8 9 9 9 9 9 9 9 9 9 9 9 10 10 10 10 11 11
12 11 11 10 9 9 8 8 7 7 7 6 6 6 6 6 6 6 5 5 5 5 6 6 6 7 8 8 9 9 9 9 9 9 9 9 10 9 9 10 10 10 11
11 11 10 10 9 9 8 7 7 7 7 6 6 6 6 5 5 5 5 5 5 5 5 5 6 6 7 7 8 8 8 8 9 9 9 9 9 9 9 9 9 10 10
11 10 10 9 9 8 8 7 7 7 6 6 6 6 5 5 5 5 5 5 5 5 5 5 5 5 6 7 7 8 8 8 8 8 9 9 9 9 9 9 9 9 10
10 9 9 9 9 8 7 7 7 6 6 6 6 6 5 5 5 5 5 5 5 5 5 5 5 5 6 6 7 7 7 8 8 8 8 8 9 9 9 9 9 9 9
10 9 9 9 8 8 7 7 6 6 6 6 6 5 5 5 5 5 5 5 5 5 5 5 5 5 5 6 6 7 7 8 8 9 9 9 9 9 9 9 9 9 9
10 9 9 9 8 7 7 7 6 6 6 6 6 6 6 6 5 5 5 5 5 5 5 5 5 5 5 6 6 6 7 7 7 8 9 9 9 9 9 9 9 9 9
9 9 9 8 8 7 7 6 6 6 6 6 6 6 6 6 5 5 5 5 5 5 5 5 5 5 5 6 6 6 6 7 7 7 8 8 8 8 8 9 9 9 9
9 9 8 8 8 7 7 6 6 6 6 6 6 6 6 6 6 6 5 5 5 5 5 5 5 5 5 5 6 6 6 7 7 7 7 7 8 8 8 8 8 9 9
9 8 8 8 7 7 7 6 6 6 6 6 6 6 6 6 6 6 6 5 5 5 5 5 5 5 5 5 6 6 6 7 7 7 7 7 8 8 8 8 9 9 9
8 8 8 7 7 7 7 6 6 6 6 6 6 7 7 6 6 6 6 6 5 5 5 5 5 5 5 5 5 6 6 6 7 7 7 8 8 8 9 9 9 9 9
Wind_Speed
7 6 6 6 6 6 6 7 8 9 8 8 9 9 9 8 7 7 8 7 6 6 6 6 5 6 7 7 7 7 8 8 7 8 8 9 11 11 9 10 10 11 12
7 6 5 5 5 6 6 6 8 9 9 8 8 7 8 8 6 6 7 8 8 8 6 5 4 5 5 6 6 7 8 7 7 7 8 8 8 8 10 9 10 10 10
4 4 3 3 4 5 6 7 8 8 9 9 8 9 8 7 7 8 7 8 8 7 7 7 6 6 7 7 7 8 10 9 8 8 8 7 7 5 7 8 8 8 8
1 2 3 4 5 6 7 8 8 9 9 9 9 10 9 9 9 8 7 8 8 7 7 6 6 6 7 7 8 9 9 10 9 8 8 9 7 5 4 7 8 9 9
2 3 5 7 8 9 10 10 10 10 10 10 10 10 11 10 9 9 8 8 7 6 6 5 5 5 6 7 8 8 9 9 11 9 8 9 8 9 8 6 7 8 8
5 6 8 9 10 11 11 11 11 12 12 12 11 11 12 12 12 11 11 9 7 5 5 5 4 4 5 6 7 8 11 11 11 10 9 8 8 9 9 8 7 7 6
7 9 10 12 13 13 13 13 13 13 13 14 13 13 13 13 13 13 12 11 10 8 6 6 5 5 4 6 7 8 10 11 12 12 10 10 10 8 8 8 7 6 5
9 11 12 13 14 14 14 14 14 15 15 15 14 14 14 14 13 13 13 13 12 11 9 9 8 7 6 6 6 7 9 9 11 13 13 10 11 10 9 9 8 7 7
11 13 13 14 14 14 14 15 15 16 16 16 16 15 15 14 15 16 15 15 12 12 12 12 11 10 9 8 7 7 8 8 10 11 13 12 11 10 10 10 9 9 8
13 14 14 14 14 15 15 16 16 17 17 17 16 15 16 16 16 16 16 16 16 15 15 15 14 13 12 11 10 9 8 8 9 9 12 12 11 11 11 11 10 10 9
15 15 14 14 16 17 17 17 18 18 18 18 17 17 17 17 17 16 17 16 16 16 16 16 16 16 15 13 12 12 10 10 9 9 11 13 13 10 11 11 11 11 10
15 15 16 16 17 18 18 19 19 19 18 18 18 18 18 18 18 18 17 17 16 17 18 17 17 18 17 16 15 14 13 12 11 10 9 11 10 12 11 11 13 11 10
15 15 16 16 17 18 18 19 19 19 19 18 18 18 18 18 18 18 18 17 17 17 18 18 18 18 18 18 17 16 14 13 13 12 11 10 10 11 10 11 11 11 11
15 16 16 17 17 18 18 19 19 19 18 18 18 18 18 18 18 18 18 18 17 17 18 18 19 19 19 19 18 17 16 15 14 13 12 11 9 9 10 10 9 9 10
16 16 17 17 18 18 18 18 18 18 18 18 19 19 19 18 18 19 18 18 18 18 18 18 18 18 18 18 18 17 17 16 15 14 13 13 12 11 8 7 7 7 7
17 18 18 19 19 18 18 18 18 18 18 18 19 19 19 19 19 19 18 18 18 18 18 18 18 18 17 16 15 16 17 15 15 14 13 12 13 14 14 12 10 9 8
18 19 19 18 18 18 18 18 18 18 18 18 19 19 19 19 19 19 19 19 18 18 17 17 17 18 18 13 13 15 17 16 15 14 13 12 12 14 13 14 13 12 11
18 18 18 19 18 18 18 17 18 18 18 18 18 18 18 19 19 19 19 19 17 16 15 16 16 16 16 14 14 14 17 17 16 15 14 13 11 12 12 12 12 12 13
17 17 18 18 18 18 17 17 18 18 18 18 18 18 18 19 19 19 19 17 16 15 15 14 14 15 14 13 14 14 14 15 16 16 15 14 13 10 10 11 12 12 12
16 16 17 18 17 17 17 17 18 18 18 18 18 18 18 19 19 18 18 16 15 14 13 12 12 13 13 12 14 15 13 13 13 13 13 12 11 11 13 12 11 12 11
17 17 17 16 16 16 16 17 17 17 18 18 18 18 18 18 17 16 15 15 13 12 11 11 11 11 11 11 14 15 12 12 12 11 11 11 14 12 12 12 11 9 8
17 17 16 17 16 16 15 16 17 17 17 18 18 18 18 16 15 15 14 13 11 11 10 9 9 8 9 10 12 15 14 10 10 10 9 8 15 14 12 11 8 6 7
16 16 17 17 16 15 15 16 17 17 17 17 17 17 16 15 14 13 13 11 9 7 7 6 6 6 6 7 11 14 14 12 10 8 3 6 13 13 11 11 9 9 9
16 16 17 17 17 17 16 15 16 16 16 17 16 15 14 13 13 11 10 9 8 7 6 5 5 4 5 7 9 11 12 13 12 11 7 10 10 9 7 9 10 10 10
15 16 16 17 17 17 17 16 15 15 16 16 14 14 12 12 11 10 8 8 7 6 6 5 5 4 4 2 1 5 8 9 10 10 10 11 11 11 11 11 10 10 10
16 16 17 17 17 16 16 16 15 15 15 14 13 11 11 10 10 9 7 1 3 4 4 4 5 3 2 2 1 1 1 1 5 8 10 11 11 11 11 10 10 10 10
Wind_Direction
79 75 73 70 69 58 47 33 21 16 5 3 352 345 342 339 344 346 353 348 339 330 289 278 276 266 255 251 249 248 241 242 243 249 250 242 237 237 237 237 241 235 230
91 82 76 68 55 44 30 23 17 12 5 5 347 341 335 329 344 352 359 358 353 347 334 312 289 279 279 267 263 252 261 253 233 244 252 247 229 221 229 227 226 235 230
86 78 57 39 23 17 7 2 357 352 354 346 340 343 336 333 346 351 356 356 354 353 354 338 329 315 296 279 265 252 247 254 241 235 248 254 248 217 197 217 220 217 223
85 40 6 356 351 348 344 342 339 336 333 328 335 337 334 335 336 335 344 346 353 351 349 345 338 324 302 289 273 253 246 246 248 230 235 256 291 270 214 196 203 206 216
294 318 324 327 329 329 329 329 329 326 322 317 311 308 313 318 319 323 324 326 334 336 337 337 336 326 310 299 284 278 254 243 247 245 229 227 230 242 265 231 194 199 210
283 298 309 315 318 320 322 323 325 323 319 311 306 299 300 301 305 306 306 306 307 304 308 311 314 310 306 301 293 280 261 253 249 252 246 231 225 224 230 238 225 217 209
286 299 307 314 316 317 319 320 321 319 318 314 306 299 295 293 286 288 293 294 294 290 286 285 281 281 281 286 290 284 276 264 252 244 243 244 241 237 230 235 230 226 213
296 306 311 314 316 317 319 320 321 318 315 312 309 303 296 290 291 292 293 291 287 286 285 271 262 259 261 266 270 276 275 271 263 252 245 244 242 238 230 231 229 223 217
308 309 313 315 319 320 319 318 317 314 313 313 309 300 297 295 294 292 283 279 278 278 273 265 259 254 249 251 255 258 267 272 267 261 251 242 239 236 232 229 229 231 226
314 317 318 317 318 317 317 316 315 314 312 310 310 308 307 301 295 290 289 287 283 278 273 267 261 255 249 242 243 251 251 257 262 263 260 249 242 234 227 224 223 227 238
321 321 318 317 317 316 317 318 317 315 313 312 311 308 304 302 298 293 288 283 279 277 271 264 260 255 250 245 240 244 245 247 254 257 259 253 249 242 230 222 219 218 220
319 319 319 319 318 318 318 317 316 313 312 311 309 306 304 301 299 296 294 290 283 276 270 264 258 254 251 247 242 242 242 241 243 245 251 256 248 244 242 229 220 215 213
319 318 318 318 316 316 316 314 312 311 311 310 308 306 304 303 301 299 297 292 286 279 272 265 258 252 250 248 243 242 242 240 240 238 238 245 251 241 237 240 230 218 210
316 316 316 315 315 313 312 311 310 312 311 310 308 306 305 304 301 298 296 292 287 281 272 265 259 253 248 244 241 238 237 238 238 236 233 229 230 243 237 236 240 230 215
316 317 316 315 314 313 312 311 311 311 311 309 307 306 305 304 301 298 295 292 288 282 275 266 258 252 247 241 235 234 235 233 235 234 230 226 218 220 235 239 234 236 226
318 318 317 316 315 314 312 312 310 311 311 308 306 306 305 304 303 301 298 294 290 285 279 270 260 251 246 237 224 228 236 234 232 233 231 226 211 212 215 229 233 233 232
318 317 316 315 314 312 312 310 310 310 307 305 304 305 305 304 303 301 298 294 291 287 279 272 263 254 248 237 213 215 233 235 233 231 229 230 214 198 207 210 217 225 232
317 316 315 315 313 314 314 312 310 308 306 305 305 306 306 305 302 300 298 295 293 288 282 273 266 258 246 223 207 206 227 235 233 230 227 227 224 208 207 206 210 218 216
315 314 313 313 314 314 315 313 310 309 308 307 308 309 307 304 302 300 298 297 293 288 281 271 265 257 246 219 201 202 225 229 232 229 225 222 222 192 191 213 214 216 215
317 316 314 313 314 318 317 312 310 311 310 310 311 308 304 302 302 301 300 298 293 286 280 269 262 254 243 216 196 203 223 226 227 223 223 219 224 182 184 216 220 220 216
317 316 315 314 317 318 316 312 310 310 312 311 309 306 304 304 303 303 301 299 296 290 282 270 260 251 239 211 194 202 222 227 228 222 214 210 185 186 191 219 227 223 224
320 321 318 316 318 320 319 314 311 313 313 311 309 307 307 308 308 307 306 305 301 295 289 273 260 248 230 212 195 198 218 242 239 235 225 196 169 181 192 212 225 215 220
322 321 319 317 318 323 322 315 314 315 314 312 311 310 310 312 312 312 312 311 305 296 293 280 262 244 222 198 188 196 208 222 236 239 230 147 161 175 197 215 213 213 221
323 323 321 319 320 324 323 318 316 316 315 314 313 313 314 316 318 317 317 318 317 310 300 289 269 242 215 205 197 199 202 206 220 228 193 163 172 210 228 198 204 220 224
324 323 320 319 321 324 321 321 321 321 318 316 315 316 318 319 317 320 326 328 335 338 317 310 297 268 235 200 182 221 212 209 207 205 206 207 202 207 214 216 215 216 216
322 322 322 323 323 323 320 322 325 322 318 317 318 319 319 320 322 328 333 7 327 356 342 321 317 306 354 32 145 221 288 142 175 206 211 211 211 211 214 216 215 215 216
Height
1532 1531 1530 1530 1529 1527 1526 1524 1522 1520 1518 1515 1513 1510 1508 1505 1501 1497 1493 1491 1488 1486 1486 1487 1488 1491 1494 1495 1497 1499 1500 1501 1503 1504 1505 1505 1505 1506 1507 1508 1510 1512 1513
1533 1533 1532 1531 1530 1528 1526 1524 1522 1520 1517 1515 1512 1509 1506 1504 1501 1497 1493 1491 1488 1487 1485 1485 1485 1487 1489 1491 1493 1495 1497 1498 1500 1501 1501 1501 1502 1501 1502 1503 1504 1506 1508
1534 1533 1532 1531 1530 1528 1526 1524 1521 1518 1516 1514 1512 1509 1506 1503 1500 1496 1493 1490 1488 1486 1484 1483 1483 1484 1486 1488 1490 1492 1493 1495 1497 1498 1499 1498 1497 1497 1498 1499 1500 1501 1504
1533 1533 1532 1531 1529 1527 1525 1522 1519 1517 1515 1512 1510 1508 1505 1502 1499 1495 1492 1489 1487 1485 1483 1482 1481 1481 1483 1484 1486 1488 1489 1491 1493 1494 1494 1496 1496 1496 1495 1496 1497 1498 1499
1532 1532 1531 1529 1528 1526 1523 1521 1517 1515 1512 1510 1507 1505 1503 1500 1498 1494 1491 1488 1485 1483 1481 1480 1479 1479 1479 1480 1482 1483 1485 1487 1489 1490 1491 1491 1492 1494 1494 1493 1495 1495 1497
1531 1530 1529 1527 1525 1523 1520 1518 1515 1511 1509 1506 1504 1501 1499 1496 1494 1491 1489 1487 1484 1482 1479 1477 1476 1476 1476 1476 1476 1478 1479 1481 1483 1485 1487 1488 1489 1490 1491 1491 1492 1493 1494
1529 1528 1526 1525 1522 1520 1517 1514 1511 1508 1505 1502 1500 1497 1495 1492 1489 1488 1486 1484 1482 1480 1477 1475 1474 1473 1472 1471 1471 1472 1473 1475 1477 1478 1481 1483 1485 1486 1487 1488 1488 1489 1491
1526 1525 1524 1522 1519 1516 1513 1510 1507 1504 1501 1498 1495 1492 1489 1488 1485 1483 1481 1479 1477 1476 1474 1472 1470 1469 1468 1467 1467 1466 1467 1468 1470 1472 1474 1477 1479 1481 1483 1484 1485 1486 1487
1524 1523 1521 1518 1516 1512 1509 1506 1503 1499 1496 1493 1489 1486 1484 1481 1479 1477 1475 1473 1472 1470 1468 1467 1466 1464 1463 1463 1462 1461 1460 1461 1463 1465 1468 1470 1473 1475 1477 1479 1481 1483 1482
1522 1520 1517 1515 1512 1509 1505 1502 1498 1494 1490 1487 1483 1481 1477 1475 1472 1470 1468 1466 1464 1463 1462 1461 1460 1459 1458 1458 1457 1456 1456 1455 1456 1458 1460 1462 1466 1469 1471 1473 1476 1477 1479
1519 1517 1514 1511 1508 1504 1500 1496 1492 1488 1484 1481 1477 1473 1470 1467 1464 1462 1460 1458 1456 1455 1454 1454 1453 1452 1452 1452 1451 1451 1451 1450 1450 1451 1452 1454 1458 1461 1464 1467 1470 1472 1474
1516 1513 1510 1507 1503 1499 1495 1491 1487 1483 1479 1474 1470 1466 1462 1459 1456 1454 1451 1449 1447 1446 1446 1445 1445 1445 1445 1445 1445 1445 1445 1445 1445 1445 1446 1447 1449 1452 1457 1460 1463 1466 1468
1513 1510 1507 1503 1499 1495 1491 1486 1482 1477 1473 1468 1464 1459 1456 1452 1448 1445 1443 1440 1438 1436 1436 1436 1435 1436 1436 1437 1438 1438 1439 1439 1439 1439 1440 1440 1441 1444 1448 1452 1456 1459 1462
1509 1506 1503 1499 1495 1491 1486 1481 1476 1472 1467 1462 1457 1453 1449 1445 1441 1438 1435 1432 1429 1427 1426 1425 1425 1426 1427 1428 1429 1431 1432 1433 1433 1434 1434 1435 1436 1436 1440 1444 1448 1452 1456
1506 1503 1499 1495 1490 1486 1481 1476 1471 1466 1461 1456 1451 1447 1443 1439 1434 1431 1427 1424 1421 1418 1416 1415 1415 1416 1417 1419 1421 1423 1424 1426 1427 1427 1428 1429 1430 1431 1433 1436 1440 1445 1448
1502 1499 1495 1490 1486 1481 1476 1470 1465 1460 1455 1451 1446 1441 1436 1432 1428 1423 1419 1416 1412 1409 1407 1405 1405 1406 1407 1409 1412 1415 1417 1418 1420 1421 1422 1423 1424 1425 1427 1429 1433 1437 1441
1499 1495 1491 1486 1481 1476 1471 1465 1460 1455 1450 1445 1440 1435 1430 1426 1421 1416 1412 1407 1404 1401 1398 1396 1395 1395 1397 1400 1403 1406 1409 1411 1412 1414 1416 1418 1419 1420 1422 1424 1426 1430 1434
1496 1491 1487 1482 1477 1472 1466 1461 1455 1450 1445 1440 1435 1430 1425 1419 1414 1409 1404 1399 1395 1392 1389 1387 1386 1386 1387 1390 1394 1397 1400 1403 1406 1408 1410 1412 1414 1416 1418 1420 1422 1424 1428
1492 1488 1483 1478 1472 1467 1462 1456 1450 1446 1440 1435 1430 1424 1418 1412 1407 1401 1396 1391 1387 1383 1380 1379 1378 1377 1379 1382 1386 1389 1393 1396 1399 1401 1404 1406 1409 1411 1413 1415 1418 1420 1423
1488 1483 1478 1473 1468 1463 1457 1451 1446 1441 1435 1430 1424 1418 1412 1406 1400 1395 1389 1384 1380 1376 1373 1371 1370 1370 1372 1375 1378 1382 1386 1390 1393 1395 1398 1401 1404 1407 1409 1411 1414 1416 1418
1484 1479 1474 1469 1464 1459 1453 1447 1441 1436 1430 1424 1418 1412 1406 1400 1395 1389 1383 1378 1374 1370 1367 1365 1364 1364 1366 1369 1372 1376 1380 1384 1387 1390 1392 1395 1398 1401 1404 1407 1409 1411 1414
1480 1476 1470 1465 1460 1455 1449 1443 1437 1431 1425 1419 1413 1406 1401 1395 1390 1384 1378 1373 1369 1365 1362 1360 1359 1359 1361 1363 1366 1371 1375 1379 1382 1385 1388 1390 1393 1396 1399 1402 1404 1406 1409
1477 1472 1467 1461 1456 1451 1445 1439 1432 1426 1420 1414 1408 1402 1396 1391 1385 1380 1374 1369 1365 1362 1359 1357 1356 1356 1357 1359 1362 1366 1370 1374 1377 1381 1384 1386 1389 1392 1394 1397 1399 1401 1403
1473 1468 1463 1457 1452 1447 1441 1435 1428 1422 1416 1410 1404 1398 1393 1388 1382 1377 1372 1367 1363 1360 1357 1355 1354 1354 1355 1357 1359 1363 1366 1369 1373 1376 1379 1382 1384 1387 1390 1392 1393 1396 1399
1470 1465 1460 1454 1449 1443 1437 1431 1425 1418 1412 1406 1401 1395 1390 1385 1380 1375 1370 1366 1362 1358 1355 1353 1352 1352 1353 1355 1357 1359 1363 1366 1369 1372 1375 1378 1380 1383 1385 1387 1389 1391 1393
1467 1462 1456 1451 1445 1439 1433 1427 1421 1415 1409 1403 1398 1393 1388 1383 1378 1374 1369 1365 1361 1357 1354 1352 1351 1351 1351 1352 1354 1357 1360 1362 1365 1369 1371 1373 1375 1378 1380 1382 1383 1385 1388